Location: Baia Mare
(47.6567°N, 23.5850°E)
Time: 00:47:27
(UTC+03:00)

ISS - Pass Details

Date: 04 November 2018
Orbit: 403 x 408 km, 51.6° (Epoch: 17 October)

Event Time Altitude Azimuth Distance (km) Brightness Sun altitude
Exits shadow 04:13:21 12° 67° (ENE) 1,344 -0.4 -30.7°
Drops below altitude 10° 04:13:39 10° 67° (ENE) 1,464 -0.1 -30.6°
Sets 04:15:44 0° 67° (ENE) 2,327 1.1 -30.3°
